Voltar ao catálogo

DELTA 1 DEB

AtivoUNKNOWN
NORAD 10649·DEBRIS·🇺🇸 United States

Lançado Jul 29, 1976 de Vandenberg Space Force Base

Loading…

Próximas Passagens (próximas 24 horas)

TLE

AtualizadoSource: Space-Track

Época: Sep 14, 2026, 05:22 UTC

1 10649U 76077K   26257.22408816 -.00000060  00000-0 -25653-3 0  9992
2 10649 102.2885 174.2953 0376931 308.2718 213.5434 11.80282826146817

Acompanhe DELTA 1 DEB em tempo real com AllMySat

Download on the App Store